TimeEDT,TemperatureF,Dew PointF,Humidity,Sea Level PressureIn,VisibilityMPH,Wind Direction,Wind SpeedMPH,Gust SpeedMPH,PrecipitationIn,Events,Conditions,WindDirDegrees,DateUTC
12:53 AM,37.0,32.0,82,30.22,10.0,NW,6.9,-,N/A,,Mostly Cloudy,310,2013-05-25 04:53:00
1:53 AM,37.0,30.9,79,30.21,10.0,NNW,6.9,-,N/A,,Overcast,330,2013-05-25 05:53:00
2:53 AM,36.0,30.9,82,30.22,10.0,NNW,6.9,-,N/A,,Overcast,330,2013-05-25 06:53:00
3:53 AM,35.1,30.0,82,30.23,10.0,NW,6.9,-,N/A,,Partly Cloudy,310,2013-05-25 07:53:00
4:53 AM,35.1,30.0,82,30.22,10.0,NW,5.8,-,N/A,,Scattered Clouds,310,2013-05-25 08:53:00
5:04 AM,36.0,30.0,79,30.18,10.0,WNW,5.8,-,N/A,,Mostly Cloudy,290,2013-05-25 09:04:00
5:30 AM,35.1,30.0,82,30.17,10.0,NW,5.8,-,N/A,,Mostly Cloudy,310,2013-05-25 09:30:00
5:53 AM,36.0,30.9,82,30.22,10.0,NW,6.9,-,N/A,,Overcast,310,2013-05-25 09:53:00
6:53 AM,37.0,32.0,82,30.23,10.0,NW,6.9,-,N/A,,Overcast,320,2013-05-25 10:53:00
7:53 AM,39.9,33.1,77,30.23,10.0,NNW,9.2,-,N/A,,Overcast,330,2013-05-25 11:53:00
8:24 AM,41.0,32.0,70,30.20,10.0,NNW,11.5,-,N/A,,Scattered Clouds,330,2013-05-25 12:24:00
8:53 AM,43.0,32.0,65,30.23,10.0,NNW,11.5,21.9,N/A,,Partly Cloudy,340,2013-05-25 12:53:00
9:53 AM,46.0,32.0,58,30.23,10.0,NW,19.6,25.3,N/A,,Mostly Cloudy,310,2013-05-25 13:53:00
10:11 AM,45.0,30.9,58,30.20,10.0,NNW,16.1,29.9,N/A,,Mostly Cloudy,330,2013-05-25 14:11:00
10:53 AM,46.9,30.0,52,30.24,10.0,NNW,17.3,26.5,N/A,,Mostly Cloudy,330,2013-05-25 14:53:00
11:53 AM,50.0,30.9,48,30.25,10.0,NW,23.0,28.8,N/A,,Mostly Cloudy,320,2013-05-25 15:53:00
12:53 PM,51.1,30.0,44,30.23,10.0,NNW,21.9,29.9,N/A,,Partly Cloudy,340,2013-05-25 16:53:00
1:53 PM,52.0,30.0,43,30.20,10.0,North,13.8,-,N/A,,Clear,350,2013-05-25 17:53:00
2:53 PM,54.0,30.0,40,30.20,10.0,NW,20.7,27.6,N/A,,Clear,320,2013-05-25 18:53:00
3:53 PM,54.0,27.0,35,30.19,10.0,NNW,18.4,29.9,N/A,,Clear,330,2013-05-25 19:53:00
4:53 PM,55.0,30.0,38,30.19,10.0,NW,13.8,25.3,N/A,,Clear,310,2013-05-25 20:53:00
5:53 PM,54.0,30.0,40,30.19,10.0,NW,15.0,31.1,N/A,,Scattered Clouds,320,2013-05-25 21:53:00
6:53 PM,53.1,28.9,40,30.20,10.0,NW,18.4,27.6,N/A,,Partly Cloudy,320,2013-05-25 22:53:00
7:53 PM,51.1,30.0,44,30.19,10.0,NW,15.0,25.3,N/A,,Clear,310,2013-05-25 23:53:00
8:53 PM,46.0,30.9,56,30.19,10.0,NW,5.8,-,N/A,,Clear,320,2013-05-26 00:53:00
9:53 PM,43.0,32.0,65,30.20,10.0,NW,4.6,-,N/A,,Clear,320,2013-05-26 01:53:00
10:53 PM,41.0,32.0,70,30.21,10.0,NNW,4.6,-,N/A,,Clear,330,2013-05-26 02:53:00
11:53 PM,41.0,30.9,67,30.20,10.0,NW,8.1,-,N/A,,Clear,320,2013-05-26 03:53:00